GFSNIL_sfc_wetblb_057.txt.gz
Wetbulb
54.01 54.07 54.63 53.24 54.07 52.37 50.53 49.29 48.08 45.55 45.95 47.35 47.86 47.86 47.28 45.44 44.80 43.41 43.61 42.93 41.62 39.34
53.17 53.47 53.64 53.13 54.34 54.32 53.74 52.44 51.13 48.54 47.02 45.40 43.98 44.85 45.27 44.42 43.44 42.59 42.82 41.88 39.76 37.73
51.97 52.67 53.19 52.73 51.91 52.02 51.76 50.49 49.02 47.11 44.37 40.47 40.72 41.73 41.41 40.48 41.66 39.65 40.84 38.78 37.02 35.15
50.52 51.36 51.61 50.59 50.70 50.34 49.90 47.89 44.30 42.78 40.76 37.84 36.92 38.46 38.71 37.07 37.66 36.82 36.43 35.92 34.42 32.89
49.48 50.02 49.59 49.32 49.51 49.25 47.42 45.18 43.13 41.39 39.08 37.87 35.70 35.38 35.97 34.77 34.92 34.30 32.93 33.43 32.47 31.20
47.88 48.02 48.41 48.40 48.31 47.39 45.03 41.09 39.45 37.53 35.52 35.18 34.00 32.27 33.59 33.62 32.96 33.08 32.18 32.37 31.12 30.09
46.59 46.78 47.47 47.64 46.64 44.84 42.40 38.56 37.53 34.79 34.39 34.35 33.07 31.25 31.49 31.03 31.34 31.55 31.64 31.16 31.17 29.48
45.70 46.21 46.39 45.15 44.15 42.05 39.83 37.90 36.47 33.26 32.43 31.64 30.83 30.10 30.34 30.04 30.22 29.93 29.06 29.12 28.68 29.07
43.37 42.15 41.50 41.40 39.30 36.87 35.74 34.76 32.58 31.20 30.43 29.37 29.20 32.68 33.81 30.73 29.07 28.64 27.73 26.57 26.96 28.40
39.33 38.44 38.10 37.23 35.56 34.28 33.76 32.79 30.54 30.18 29.48 29.26 28.98 32.58 33.94 32.36 28.65 27.86 27.47 26.89 27.27 28.37
36.83 35.95 35.39 34.87 34.00 33.91 33.21 31.06 30.25 29.24 28.93 28.78 28.37 32.38 33.47 31.56 28.24 27.79 27.55 27.37 28.10 29.68
36.06 34.27 34.14 32.94 32.81 32.83 31.43 30.31 29.68 29.56 28.89 28.12 27.94 32.27 33.43 29.97 28.35 27.77 27.27 28.46 29.64 31.21
34.73 32.96 32.45 32.61 31.96 31.88 31.58 29.94 28.14 28.22 28.80 27.87 28.28 32.61 33.13 30.19 28.58 26.95 26.77 28.27 29.84 30.77
32.91 31.84 32.32 31.96 31.73 30.55 29.01 27.98 27.46 26.94 27.27 28.20 30.46 31.59 33.70 32.53 29.15 28.92 27.45 27.37 28.56 29.65

GFSNIL_sfc_wetblb_060.txt.gz
Wetbulb
50.59 51.00 50.57 50.07 50.78 50.51 49.66 49.27 49.56 48.45 49.08 48.90 48.59 48.15 47.27 45.26 44.25 44.06 42.78 41.67 40.75 40.39
49.06 49.40 49.27 49.24 49.18 49.86 49.75 49.16 47.26 47.12 46.85 46.97 47.39 47.57 46.85 45.46 43.57 43.78 42.56 42.30 41.04 36.94
48.06 48.49 48.80 48.85 47.92 48.48 49.23 49.40 48.13 46.19 46.51 45.93 45.65 46.38 46.17 44.58 43.85 42.90 42.33 41.56 39.08 34.49
46.14 47.11 47.70 47.86 47.36 47.25 46.65 45.91 45.23 44.83 44.71 42.89 42.08 42.20 43.20 41.18 40.85 40.83 39.48 36.63 35.48 33.10
45.56 45.88 46.10 46.37 46.26 45.40 45.04 42.94 41.38 39.62 37.61 36.75 36.53 38.52 40.58 38.51 39.93 38.64 36.70 34.64 32.86 31.70
44.10 44.52 44.98 45.22 45.14 44.56 43.49 40.97 38.83 37.63 36.60 34.10 35.23 34.97 38.35 37.78 37.15 37.29 36.79 34.54 32.96 31.30
42.53 43.88 44.11 44.40 44.02 43.24 41.64 37.60 35.52 34.75 35.62 34.06 33.40 32.22 34.93 34.03 34.17 34.25 33.49 32.68 32.59 30.58
41.82 42.80 42.89 41.35 40.05 39.12 37.37 36.36 34.36 32.63 32.08 31.84 31.60 31.45 32.11 32.22 32.02 31.82 30.65 30.03 29.28 29.05
39.87 38.33 37.83 37.41 37.17 36.10 34.50 33.40 32.19 30.88 32.11 31.01 31.19 34.87 35.46 32.32 30.69 30.45 29.62 27.82 27.62 28.80
35.10 35.06 35.99 35.71 34.86 33.35 32.25 31.07 29.92 29.55 30.32 29.58 29.62 33.91 34.80 33.79 29.69 29.52 29.19 27.90 28.12 28.77
33.61 31.95 31.42 31.78 32.10 31.27 30.62 29.04 27.65 28.18 29.26 28.90 28.58 33.44 34.38 32.33 28.91 28.44 28.09 28.06 28.44 28.92
30.32 29.38 29.62 28.49 28.41 28.38 27.55 25.56 24.98 29.68 28.96 28.63 28.68 33.14 34.07 31.07 28.49 27.62 27.20 28.42 29.04 30.09
28.94 27.44 26.56 27.66 26.46 25.51 24.99 28.41 28.55 28.67 29.02 28.40 28.62 33.09 34.01 30.51 28.27 26.64 26.65 27.97 29.13 30.70
27.56 26.13 26.96 25.99 24.62 23.54 23.78 27.51 27.31 27.11 27.32 27.83 29.14 31.49 33.92 31.62 28.53 27.68 26.88 27.21 27.93 30.40

GFSNIL_sfc_wetblb_063.txt.gz
Wetbulb
48.90 49.11 49.66 48.21 49.54 49.88 49.90 49.77 49.71 50.62 52.39 53.26 52.57 51.86 49.80 47.36 46.09 45.25 44.32 43.82 42.98 42.89
48.33 48.81 48.99 47.87 48.30 49.90 49.83 49.10 48.61 49.92 50.23 50.86 49.97 50.21 49.45 47.89 45.59 44.94 43.95 43.48 42.56 42.25
47.66 48.35 49.13 47.73 47.85 47.29 48.62 47.64 46.56 48.07 48.79 48.76 48.69 48.41 47.49 46.14 45.27 44.18 43.99 43.85 41.97 41.10
45.49 46.42 46.92 47.69 47.91 46.74 45.82 47.22 46.13 45.15 46.47 46.70 46.36 46.14 46.36 46.23 44.83 43.18 43.12 42.86 41.99 41.23
44.50 44.86 44.90 45.68 45.52 45.04 45.59 44.40 45.43 44.34 43.57 44.43 44.97 44.40 45.04 43.79 43.66 42.37 41.38 40.79 39.78 39.69
43.52 43.36 44.29 44.57 43.96 43.97 43.61 42.67 40.49 40.24 40.61 38.92 39.49 40.50 42.45 43.20 41.45 41.14 41.26 40.45 38.69 37.21
42.94 43.27 43.97 43.16 43.02 42.69 42.03 40.71 38.52 37.40 37.99 35.97 34.50 36.74 37.76 38.72 39.14 38.91 39.48 38.36 37.49 34.68
41.91 41.48 41.71 40.56 39.58 39.09 38.63 39.14 36.97 35.18 34.04 33.43 33.29 34.87 34.75 34.69 36.05 35.83 35.37 33.33 33.62 32.51
39.33 37.50 37.23 37.05 37.09 36.59 35.98 34.69 33.54 32.68 32.34 31.13 33.80 36.67 36.72 34.40 32.76 32.66 31.89 30.41 30.03 29.98
34.77 34.81 35.83 35.53 35.22 34.90 34.10 32.47 32.12 31.36 30.49 30.05 30.77 35.19 36.41 35.74 30.87 31.17 31.09 29.77 28.80 28.89
31.80 31.16 30.28 30.49 31.80 32.66 31.43 29.63 29.13 27.56 27.71 27.76 29.15 34.42 35.61 35.08 29.90 30.00 30.11 29.41 29.43 29.19
31.38 28.55 28.43 27.50 27.43 27.66 26.31 25.11 24.59 26.30 26.30 29.73 29.05 34.10 34.88 33.74 29.24 28.81 28.15 28.88 29.40 29.53
28.36 25.50 25.09 26.79 25.22 24.52 23.71 25.68 28.32 29.04 29.63 29.15 29.31 33.72 34.43 31.45 28.62 27.10 27.07 28.13 29.09 30.13
26.16 24.19 24.68 23.23 22.96 21.52 25.03 28.03 27.69 27.42 27.44 28.02 28.89 31.08 34.44 31.72 28.66 27.36 26.96 27.23 28.08 30.25

GFSNIL_sfc_wetblb_069.txt.gz
Wetbulb
50.45 50.91 51.91 50.25 49.96 49.73 50.04 50.28 49.30 50.31 54.52 56.56 56.29 55.17 54.21 52.51 50.35 49.56 48.35 47.74 47.58 45.85
46.83 47.47 48.83 48.06 47.38 48.78 47.42 47.49 47.44 47.67 48.60 50.51 53.19 54.71 54.15 53.31 51.55 49.90 48.42 47.99 47.31 46.68
44.77 45.47 46.33 46.28 46.17 46.52 46.88 46.11 45.45 45.86 46.88 46.83 47.80 48.75 50.08 52.01 51.63 50.46 49.09 48.12 47.65 46.70
42.83 43.47 44.08 44.59 45.76 45.90 45.35 44.84 45.52 45.65 45.83 46.15 45.97 46.59 48.57 49.62 49.42 48.25 47.71 47.26 45.96 45.36
42.46 42.48 42.48 42.95 43.97 43.92 44.33 43.71 44.89 44.30 44.39 45.27 46.86 47.97 47.47 47.69 47.65 47.22 45.56 45.82 44.46 44.40
41.59 41.67 41.93 42.33 42.62 42.50 42.37 42.26 41.55 41.53 41.86 44.33 46.40 46.33 46.31 47.08 46.48 45.87 45.47 45.10 43.33 43.54
40.14 40.53 40.99 41.31 41.16 40.97 40.88 40.37 39.78 39.36 40.81 40.53 43.92 43.99 44.62 44.35 43.92 43.68 43.68 43.45 42.97 42.41
38.10 38.17 37.88 37.29 36.94 36.56 36.19 37.92 38.24 37.43 36.26 36.57 38.19 41.41 40.24 39.44 40.43 40.12 40.45 38.14 38.05 38.67
33.23 32.73 33.19 33.56 33.94 34.14 34.39 34.41 34.53 34.54 34.45 34.32 36.38 39.02 40.30 39.31 37.05 35.79 35.89 36.27 35.30 35.39
32.00 32.27 32.52 32.22 32.39 33.10 33.63 33.32 33.24 33.16 32.90 32.07 32.76 37.79 39.02 38.49 34.63 34.37 34.31 34.31 33.65 32.33
30.41 30.06 30.45 30.82 30.80 31.27 31.71 29.83 29.48 29.19 28.67 27.86 29.60 35.97 37.52 37.10 33.42 32.25 32.17 32.27 32.08 31.61
29.31 29.13 29.42 27.87 27.90 27.67 25.83 24.89 24.34 25.71 23.24 23.88 30.78 33.93 35.66 35.39 32.16 30.58 30.19 30.52 30.53 30.71
27.99 28.51 30.06 29.12 27.17 24.40 21.84 25.37 25.03 27.43 29.87 30.50 31.12 32.36 34.61 34.22 30.37 28.99 28.17 28.75 29.43 29.97
24.88 23.99 24.60 23.79 21.17 19.69 19.67 22.68 21.42 25.27 26.66 28.27 28.68 29.80 34.39 32.98 29.57 28.52 27.63 27.98 28.16 29.68

GFSNIL_sfc_wetblb_072.txt.gz
Wetbulb
51.23 51.37 51.08 50.76 49.86 49.36 49.34 49.66 49.57 49.69 53.21 56.75 57.68 56.36 55.33 53.69 51.93 51.52 49.81 49.69 49.20 48.14
45.90 46.93 47.95 48.13 47.59 47.76 47.47 47.43 47.43 47.52 47.93 49.51 52.68 55.50 55.12 53.71 51.59 50.57 49.52 49.01 49.04 48.30
42.89 43.52 44.27 44.69 45.09 45.18 45.68 45.29 45.09 45.28 45.69 46.21 46.70 49.05 52.31 52.89 52.70 51.32 50.06 49.18 48.21 47.99
41.27 41.78 42.12 42.25 43.03 43.29 43.54 43.80 43.91 44.03 44.10 44.67 44.85 44.61 46.46 48.80 50.05 49.97 49.81 49.24 47.61 47.04
40.69 40.86 41.03 41.47 42.23 42.20 42.46 42.54 43.08 42.80 42.66 43.58 44.08 44.02 44.27 46.03 47.50 47.58 47.31 47.56 47.34 46.19
39.50 39.35 39.51 39.84 40.34 40.60 40.58 40.39 40.07 40.12 40.36 41.31 42.46 43.41 45.30 47.13 46.80 46.61 47.04 47.00 45.40 45.58
37.49 37.51 37.64 37.74 37.88 37.80 37.90 37.80 38.00 38.12 38.66 38.92 39.85 41.04 44.19 45.07 44.57 44.60 45.19 44.99 44.81 43.64
35.46 35.29 34.78 34.77 34.57 34.67 34.40 35.79 35.54 35.46 35.16 35.14 35.97 38.91 40.83 41.35 41.99 41.49 41.85 40.02 39.56 39.75
32.32 31.92 32.01 31.96 32.09 32.24 32.98 33.27 33.50 33.52 33.37 33.50 35.86 38.49 40.11 40.46 37.62 36.63 37.16 37.90 36.47 36.36
30.37 30.05 30.75 30.79 30.83 31.17 31.18 31.58 31.67 31.90 31.92 31.57 32.22 37.18 38.76 38.81 36.69 35.55 35.71 35.21 34.46 33.93
29.04 28.52 28.00 28.30 28.34 29.58 30.00 30.11 29.74 29.50 28.80 28.00 29.98 35.92 37.14 37.41 34.61 34.29 33.55 33.17 32.82 32.73
28.92 27.80 27.54 27.42 27.49 26.55 26.61 25.71 26.12 26.47 25.40 22.75 26.70 34.40 35.56 35.82 33.12 32.31 31.56 31.06 31.03 31.09
27.25 25.72 25.75 26.66 26.55 24.13 22.08 26.38 26.04 25.67 22.09 23.15 28.89 32.87 33.97 34.39 31.64 30.45 28.96 28.89 29.49 29.92
24.86 23.68 23.74 23.89 22.34 22.56 22.07 22.88 21.15 21.74 20.92 22.02 27.00 29.32 32.78 35.16 30.18 29.52 28.28 28.21 28.12 29.43

GFSNIL_sfc_wetblb_075.txt.gz
Wetbulb
53.53 54.37 54.46 54.05 53.83 53.20 53.01 53.18 53.24 53.10 53.86 56.28 57.88 58.19 57.31 56.65 54.50 53.70 51.99 51.83 51.13 51.00
45.90 46.96 48.16 48.75 49.55 50.15 50.14 49.55 49.91 50.06 50.24 50.83 52.35 54.67 56.11 55.64 54.31 52.28 51.79 51.26 51.35 50.82
43.32 44.03 44.68 45.11 45.42 45.91 46.53 46.92 47.16 47.39 47.72 48.32 48.76 49.65 51.55 52.92 54.25 53.13 51.94 51.63 50.66 50.22
42.12 42.52 43.00 43.20 43.59 43.80 44.18 44.45 44.67 45.19 45.58 45.98 46.54 47.04 47.34 48.94 50.45 50.86 51.02 50.93 49.64 48.92
40.32 40.36 40.53 40.77 41.34 41.90 42.10 42.54 42.70 42.77 42.98 43.68 44.49 45.34 45.40 46.10 46.90 47.63 47.64 48.51 48.43 48.08
38.59 38.43 38.37 38.40 38.69 38.96 39.31 39.39 39.95 40.19 40.53 41.34 42.26 43.11 44.11 45.12 45.80 46.54 47.36 47.22 46.29 46.60
36.93 36.63 36.63 36.85 36.95 36.97 36.87 37.20 37.84 38.07 38.25 38.71 39.39 40.11 41.36 43.14 44.51 44.81 45.09 45.45 45.92 45.74
35.45 35.07 34.64 34.56 34.30 34.38 34.39 35.38 35.63 35.86 36.37 36.61 36.48 37.98 38.90 39.05 40.30 40.79 41.56 42.02 42.10 42.96
33.14 32.54 32.36 32.35 32.34 32.62 33.10 33.52 33.83 34.01 34.21 34.39 36.04 37.96 38.63 38.76 37.58 37.38 36.79 37.82 38.78 37.66
31.15 30.37 30.63 30.53 30.49 30.88 31.39 31.62 31.71 32.20 32.61 32.81 33.51 35.85 37.46 37.47 36.31 36.00 36.57 36.26 35.71 35.13
29.58 28.78 28.48 28.18 28.47 29.21 29.62 29.44 29.91 30.26 30.78 30.68 31.29 34.91 36.19 36.50 35.47 35.43 35.56 35.35 34.74 33.87
28.17 26.93 26.75 25.57 26.73 27.29 27.71 27.51 27.27 28.81 28.37 27.58 28.53 32.74 34.76 35.49 33.40 33.54 33.48 33.08 32.75 32.17
26.97 24.93 25.18 26.35 25.86 26.18 24.55 26.09 26.59 27.11 27.06 24.94 25.43 29.88 32.75 33.54 32.35 31.55 31.66 30.54 30.32 30.36
25.00 23.46 24.07 24.72 23.68 23.92 23.09 23.41 23.31 24.47 25.58 24.38 25.29 26.52 31.39 33.39 32.48 31.28 30.15 29.23 29.17 29.74

GFSNIL_sfc_wetblb_078.txt.gz
Wetbulb
55.82 56.93 56.54 56.30 56.50 56.88 57.69 57.79 57.60 57.02 57.46 57.78 58.17 57.90 58.60 57.93 57.11 56.29 54.59 54.10 53.93 53.67
50.46 50.67 50.68 51.02 51.93 52.36 52.51 51.50 51.51 52.88 53.16 53.87 54.34 54.88 55.50 56.13 54.77 55.23 54.81 54.23 54.34 53.47
48.17 48.68 48.98 49.26 48.70 48.89 49.41 49.47 49.42 49.87 50.36 50.80 51.26 51.72 52.06 52.49 53.75 53.85 54.08 53.56 52.82 52.44
46.21 46.46 46.70 46.51 46.46 46.26 47.02 46.75 46.82 47.10 47.41 47.89 48.38 49.20 49.41 49.96 50.31 50.22 51.27 52.44 51.57 50.78
44.33 44.34 44.11 43.85 43.80 43.98 43.93 44.39 44.05 44.08 44.44 45.05 45.64 46.51 46.70 46.89 47.83 47.88 47.93 48.27 47.74 47.90
42.01 41.69 41.41 41.51 41.59 41.71 41.57 42.18 42.68 42.39 41.97 42.24 42.89 43.07 43.88 44.56 45.16 45.90 46.17 46.48 46.15 46.15
39.96 39.66 39.66 39.77 39.58 39.75 39.98 40.35 40.46 40.70 40.58 40.85 40.89 41.08 41.56 42.15 42.66 43.60 44.28 45.17 45.21 44.87
39.10 38.68 38.33 38.05 37.89 38.15 38.24 38.32 38.35 38.13 38.43 39.06 39.39 39.67 39.78 40.06 40.57 39.96 40.10 40.72 41.48 42.40
36.77 35.77 35.91 35.64 35.20 35.37 35.68 35.87 35.62 35.84 36.11 35.99 37.16 37.89 37.73 37.83 38.60 38.15 37.53 37.60 38.62 39.21
33.93 33.68 33.93 33.18 33.35 33.49 33.60 33.74 33.41 33.90 34.28 34.70 35.82 36.01 36.44 36.61 36.72 37.42 37.36 36.89 36.94 36.48
32.89 32.26 32.13 31.75 31.64 32.32 32.62 32.25 32.07 32.51 32.96 33.47 33.84 34.97 35.39 35.40 36.22 37.09 37.16 37.18 36.80 36.15
31.69 30.57 30.11 29.45 30.70 31.28 31.34 31.33 31.55 31.62 31.58 31.59 32.11 33.39 33.96 34.30 34.74 34.77 35.00 35.58 36.37 35.73
30.47 29.27 29.16 29.95 30.02 30.99 30.36 29.87 30.45 30.84 31.44 30.83 30.46 31.88 32.69 33.28 33.86 33.08 33.59 34.67 34.64 32.03
28.98 28.32 28.60 29.20 29.93 29.42 28.68 29.19 29.22 29.77 31.20 31.24 30.80 31.03 31.97 32.86 32.92 32.64 31.76 31.60 31.68 32.82